Location: Helsinki
(60.1699°N, 24.9384°E)
Time: 23:28:13
(UTC+02:00)

Altair - Pass Details

Date: 05 November 2020
Orbit: 1502 x 1682 km, 47.2° (Epoch: 25 November)

Event Time Altitude Azimuth Distance (km) Brightness Sun altitude
Rises 02:37:18 0° 194° (SSW) 4,629 - -37.7°
Reaches altitude 10° 02:41:30 10° 177° (S) 3,660 - -37.3°
Exits shadow 02:45:58 18° 148° (SSE) 3,104 9.0 -36.8°
Maximum altitude 02:47:09 18° 138° (SE) 3,082 9.1 -36.7°
Drops below altitude 10° 02:52:53 10° 100° (E) 3,726 9.9 -36.2°
Sets 02:57:11 0° 83° (E) 4,743 10.8 -35.7°
